Wind_Speed
96 97 98 99 99 99 100 100 100 100 100 100 100 100 100 99 99 99 98 98 98 98 98 97 97 96 95 92 88 86 83 81 80 79 78 76 75 74 73 72 70 69 69 69 69 68 68 68 68 67 68 68 67 68 68 69 70 71 71 72 73 75 76 77 78 78 78 79 80 80 81 82 83 83 84 84 85 85 85 85 85 85 85 85 84
98 99 99 99 99 99 100 100 100 100 100 100 100 99 99 98 97 97 97 97 97 97 97 97 96 93 89 85 81 80 78 77 77 77 76 75 74 74 73 72 70 70 70 70 69 70 69 69 69 68 68 68 68 69 70 72 73 74 74 75 76 77 78 80 81 80 80 81 82 82 83 84 84 84 85 86 86 87 87 88 88 88 88 88 87
100 100 99 99 99 99 100 100 100 101 100 99 98 97 96 96 96 97 97 97 98 97 96 95 92 87 83 80 78 77 77 77 76 76 76 76 76 75 74 74 73 73 72 72 71 71 71 71 72 71 71 70 71 72 73 75 76 77 78 79 79 79 80 82 84 83 83 83 84 83 84 85 86 87 87 87 87 88 88 89 89 90 90 90 90
100 99 99 99 99 99 99 99 99 98 97 96 96 95 96 96 97 97 98 98 97 96 94 90 86 83 81 80 79 78 78 78 78 78 78 78 78 79 79 78 77 77 76 76 75 74 74 74 74 75 75 75 75 75 77 79 81 82 83 83 83 83 84 85 86 87 86 86 86 85 86 87 88 89 89 89 89 89 90 90 91 92 92 92 92
99 99 98 97 97 97 97 96 96 95 95 95 96 96 97 98 98 98 97 97 95 92 89 86 83 83 82 82 82 81 81 81 81 81 82 82 82 83 84 83 83 82 81 81 80 79 79 78 78 79 80 81 81 81 82 83 85 87 87 87 87 87 87 88 89 91 91 90 89 89 89 90 90 92 93 92 92 93 93 93 93 94 94 95 95
97 96 95 94 94 95 95 95 95 95 96 97 97 98 98 98 98 97 95 93 91 88 86 85 85 85 85 85 85 85 85 85 85 85 85 86 87 87 88 88 88 88 87 87 86 85 84 84 83 83 84 85 86 87 87 88 90 91 92 92 92 92 92 91 92 95 95 94 94 93 93 93 93 95 96 96 96 97 97 96 97 98 98 98 98
94 94 94 94 95 95 96 96 96 97 97 97 97 97 97 96 95 93 91 90 88 87 87 87 88 88 89 89 89 89 89 89 90 90 90 91 92 92 93 94 94 94 93 93 92 92 91 90 90 89 89 90 90 91 92 93 94 96 97 97 97 97 96 96 97 98 99 99 99 99 98 97 97 98 99 99 100 101 102 101 101 101 101 101 101
94 95 95 96 96 96 96 96 96 96 96 96 95 94 93 92 91 90 89 89 89 90 90 91 92 92 92 93 93 93 93 93 94 95 96 96 97 98 99 99 100 100 100 100 99 98 98 97 97 96 96 96 96 96 96 97 98 99 101 101 101 102 101 101 101 102 103 104 104 104 103 103 102 102 103 104 103 103 105 107 106 105 105 105 105
96 96 97 97 97 96 96 95 94 94 93 92 91 91 90 90 90 90 91 92 92 93 94 95 96 96 96 97 97 98 98 98 99 100 101 101 102 103 104 105 105 106 106 105 104 104 103 103 103 102 102 102 102 102 102 102 103 104 105 106 107 107 107 107 107 107 108 108 109 109 109 108 108 107 107 107 108 107 107 110 112 112 110 109 109
96 96 96 95 94 93 93 92 91 90 90 89 90 90 91 92 93 94 95 96 97 98 99 100 101 101 101 101 102 103 103 104 104 105 106 106 106 106 106 106 106 106 106 106 105 105 105 105 105 105 105 106 106 107 107 108 108 109 110 111 112 113 113 113 113 113 113 114 114 115 114 114 114 113 113 113 112 111 110 112 115 117 116 114 114
92 92 91 91 90 90 90 90 90 90 91 91 92 93 95 96 97 99 99 100 101 103 104 105 106 106 107 107 107 108 108 108 108 108 108 107 106 106 105 105 106 106 107 107 107 107 108 108 108 108 108 109 109 110 110 111 112 113 114 115 116 117 118 119 119 119 119 120 120 120 120 120 120 119 119 119 118 117 115 115 117 120 121 120 120
89 89 89 90 90 91 92 92 93 94 95 96 97 98 100 101 102 103 104 105 106 107 109 110 110 111 111 111 110 110 109 109 109 108 108 108 107 107 107 108 109 109 110 111 111 112 112 112 113 113 113 114 114 114 115 115 116 117 117 118 119 121 122 123 124 124 125 126 126 126 126 126 126 125 125 125 124 122 122 120 120 123 124 123 125
90 91 92 93 94 95 96 97 97 98 99 101 102 103 105 106 107 108 108 109 110 111 112 112 112 112 112 111 111 111 110 110 110 110 110 110 110 111 111 111 112 113 114 115 115 116 117 118 119 119 120 120 120 121 121 121 122 122 122 123 124 125 126 127 127 127 129 130 130 131 132 132 132 132 132 131 131 129 128 127 125 127 127 126 127
95 96 97 98 99 100 101 101 102 103 104 105 106 107 108 109 109 110 110 111 111 112 112 112 112 112 112 112 112 113 113 113 113 113 113 113 114 114 115 115 116 117 118 119 120 121 122 123 123 124 125 126 126 127 127 127 128 128 128 129 130 130 131 132 132 132 132 133 134 134 135 136 136 137 137 137 137 136 135 134 132 132 132 130 130
98 99 100 101 102 103 103 104 104 105 106 107 107 108 108 109 109 110 110 111 112 112 113 113 114 114 115 115 115 116 116 117 117 117 117 117 118 118 119 119 120 120 121 122 123 123 124 125 126 127 128 128 129 130 131 131 132 133 133 134 135 135 136 137 137 137 137 138 138 138 138 138 139 140 141 141 141 141 141 140 139 138 137 135 135
99 100 101 102 103 103 104 104 105 106 106 107 108 109 109 110 111 112 112 113 114 115 115 116 117 117 118 118 119 119 119 120 120 121 121 121 121 121 121 121 121 121 121 122 122 123 123 124 125 126 127 128 129 130 131 132 133 134 135 136 137 139 140 140 141 141 141 142 142 142 142 141 142 143 144 144 144 145 145 144 144 143 142 140 139
100 101 102 103 104 104 105 106 107 108 108 109 110 111 112 113 114 114 116 116 117 117 118 119 119 120 121 121 122 122 123 123 124 124 124 123 123 122 121 121 120 119 119 118 119 119 119 120 121 122 123 124 125 127 128 129 131 132 133 135 136 138 140 141 142 144 144 145 145 146 145 145 145 145 146 147 147 147 147 147 147 147 146 144 142
102 103 104 105 106 106 108 108 109 110 111 112 113 114 115 115 116 117 118 119 120 120 121 122 123 124 124 125 126 126 126 126 126 125 124 123 122 121 120 118 117 116 116 115 115 115 116 116 117 117 118 120 121 122 123 124 126 127 129 130 132 134 136 137 140 142 144 145 147 147 148 148 148 148 148 148 148 148 148 148 149 149 149 147 145
105 106 107 108 108 109 110 111 112 113 114 115 116 117 118 119 120 121 122 123 124 125 125 126 127 128 128 128 128 128 127 126 125 124 123 121 120 119 118 117 116 115 114 113 113 113 112 112 113 113 114 115 116 117 118 119 120 121 122 124 126 128 130 132 134 137 139 142 144 145 147 147 148 149 150 149 149 149 148 148 148 149 149 148 148
109 110 111 112 113 114 114 115 116 117 119 120 121 122 123 124 125 126 127 128 128 128 129 129 129 128 128 127 126 126 125 124 122 121 120 120 118 117 116 115 114 113 112 111 111 110 110 109 109 109 110 111 111 112 113 114 115 116 117 119 120 123 125 126 128 131 134 137 139 141 142 144 146 147 147 147 147 147 147 147 146 146 146 146 147
113 114 115 116 117 118 119 120 121 122 123 124 125 126 127 128 129 129 129 129 129 128 127 126 126 125 124 123 122 122 121 121 120 119 118 117 115 114 112 111 110 110 109 108 108 107 106 105 105 105 106 106 107 107 108 109 110 111 113 115 117 119 121 122 124 126 130 133 135 136 138 139 141 143 143 143 143 144 144 143 142 141 141 142 143
117 118 119 120 121 122 123 124 124 125 126 126 127 127 127 127 127 126 126 125 125 124 123 123 122 122 121 121 120 119 119 118 117 116 114 113 112 111 109 108 108 107 107 106 105 104 104 103 102 102 103 103 104 104 105 106 107 108 110 112 115 116 118 119 121 123 125 129 131 132 133 135 137 138 138 139 140 140 140 138 137 136 135 136 136
119 120 121 121 122 123 123 123 123 123 123 123 124 123 123 123 123 122 122 121 121 121 120 120 120 119 118 118 117 116 115 114 113 112 111 110 109 109 108 107 106 106 105 105 104 104 103 102 102 101 101 101 101 102 103 103 104 105 107 109 111 114 115 116 118 119 121 124 126 128 128 130 132 133 134 134 136 136 136 135 134 132 131 131 131
118 118 118 118 119 119 119 119 118 118 119 119 119 119 119 119 119 119 119 118 118 118 117 116 116 115 114 114 113 112 112 111 111 110 109 109 108 107 107 106 106 105 104 104 103 102 101 101 100 99 99 99 99 99 100 101 102 103 104 106 108 110 112 113 114 115 117 119 121 122 124 126 128 128 129 130 131 132 132 132 131 130 129 128 127
114 114 114 114 114 115 115 114 114 115 115 115 116 116 116 116 115 115 115 114 114 113 113 112 112 111 111 110 110 110 110 109 109 109 108 108 107 107 106 105 104 104 103 102 101 100 99 98 97 97 96 96 97 97 97 98 100 101 102 103 104 106 107 109 110 111 113 115 116 117 119 121 123 124 124 126 127 128 128 128 128 128 127 126 124
110 110 110 110 111 111 111 111 111 111 111 112 112 112 112 111 111 111 110 110 110 110 110 109 109 109 109 109 109 109 109 108 108 108 107 107 106 105 104 104 103 102 101 100 100 99 98 97 96 96 96 95 95 96 96 97 98 99 100 100 101 102 103 105 106 107 109 110 111 112 113 115 117 119 120 121 122 123 123 123 124 124 125 124 121
107 107 107 107 108 108 107 107 107 107 108 108 108 108 108 108 108 108 108 108 108 108 108 108 108 107 107 107 108 108 107 107 107 106 105 105 104 104 103 102 101 100 100 99 99 98 98 97 97 96 96 95 95 95 96 96 96 97 98 98 99 99 100 101 102 103 104 105 105 106 108 110 112 113 115 117 118 119 119 119 120 120 121 120 118
104 103 103 104 104 104 103 104 104 104 104 105 105 105 105 106 106 106 106 106 106 107 107 107 106 106 106 106 106 106 106 105 104 104 103 103 102 102 101 101 100 99 99 98 98 97 97 96 95 95 94 94 93 93 93 93 93 94 95 95 96 96 96 97 98 98 99 100 101 102 103 105 106 108 110 112 113 115 115 115 115 115 115 114 113
100 100 100 100 100 100 100 100 101 101 102 102 103 103 104 104 104 104 104 105 105 105 105 105 105 105 104 104 104 104 104 103 102 102 101 101 101 100 100 99 98 98 98 97 96 95 94 93 92 92 92 92 91 90 90 90 90 91 91 91 92 92 92 92 93 93 94 95 96 97 98 100 102 104 105 107 109 111 112 111 111 111 110 108 108
96 96 96 97 97 97 97 98 99 99 100 100 101 102 102 103 103 103 103 103 103 104 104 104 103 103 103 102 102 102 102 101 101 100 100 99 99 98 98 97 97 96 96 95 94 93 92 91 90 89 89 88 88 87 87 87 87 87 87 87 87 88 88 88 88 88 88 89 90 91 93 95 97 99 101 103 104 106 107 106 106 105 104 104 103
94 94 95 95 95 96 96 97 98 98 99 100 100 101 101 102 102 102 102 102 102 102 102 102 102 101 101 100 100 100 100 100 100 99 99 98 97 97 96 95 94 94 93 93 92 91 90 89 87 85 84 84 84 85 85 84 84 84 84 83 83 84 84 84 84 83 83 84 85 86 88 90 92 94 96 98 99 101 101 101 100 99 99 99 99
94 94 95 95 96 96 97 97 98 99 99 100 101 101 101 101 101 101 101 101 101 101 101 100 100 100 100 100 99 100 100 99 99 98 97 97 96 95 94 93 92 92 92 91 90 89 87 86 84 82 82 82 82 82 83 82 82 83 82 81 80 80 81 81 81 80 80 80 81 82 84 86 88 89 91 92 94 95 95 95 94 94 95 95 95
93 94 94 95 95 96 96 97 97 98 99 100 100 101 101 101 101 101 101 101 101 101 100 100 100 100 100 99 99 99 98 98 97 96 96 95 94 93 92 91 91 91 91 90 88 86 85 84 82 81 80 80 81 81 80 81 81 80 80 78 77 77 77 78 78 78 78 78 78 79 80 82 83 84 85 86 87 88 89 89 89 89 89 91 92
91 91 92 92 93 93 94 94 95 95 96 97 97 98 98 99 99 99 99 100 100 100 99 99 99 98 98 97 97 96 96 95 95 94 94 93 92 91 90 90 89 89 88 87 85 83 83 83 81 79 78 78 78 79 78 78 78 77 77 75 74 73 74 74 75 75 75 76 76 76 77 78 79 79 79 80 81 82 82 82 82 83 84 86 88
87 87 88 89 90 90 90 91 91 92 92 93 94 95 95 96 96 96 96 96 96 96 96 96 95 95 95 94 94 94 93 93 92 92 92 91 90 89 88 87 87 87 85 83 81 81 81 81 79 77 75 74 75 76 75 74 74 73 73 72 71 70 70 71 71 72 73 73 73 73 73 74 74 74 74 75 76 76 76 76 77 78 79 81 84
83 84 85 86 86 87 87 88 89 89 90 91 91 92 92 93 93 93 93 93 93 93 93 93 94 93 93 92 92 91 91 90 90 90 89 89 87 86 86 85 84 84 83 81 78 78 78 77 75 73 71 71 72 73 71 70 70 69 68 68 68 68 67 67 69 70 70 70 70 70 69 69 69 69 71 72 72 72 72 72 73 75 76 78 80
82 82 83 83 84 84 85 85 86 87 88 89 89 90 90 91 91 91 91 91 91 92 92 92 92 91 91 90 89 88 88 87 87 86 86 86 85 84 83 82 81 81 80 78 75 75 75 73 70 69 69 68 70 70 69 67 66 66 65 65 65 65 65 65 66 67 67 67 67 66 65 64 65 66 67 68 68 69 69 70 71 73 75 76 78
80 81 82 82 82 83 83 83 84 85 85 86 87 88 88 88 89 89 89 89 89 89 89 89 89 88 88 87 86 85 84 83 83 84 83 83 82 81 80 79 79 77 76 74 73 73 74 71 68 66 66 66 67 68 67 65 63 63 62 62 62 63 63 63 64 64 64 63 62 61 61 61 62 63 64 64 65 66 67 69 70 72 73 74 75
79 79 80 80 81 81 81 81 82 82 83 83 84 85 85 86 86 86 87 87 87 87 87 87 86 86 85 84 83 83 82 81 81 81 81 80 78 77 77 77 77 75 73 72 71 71 71 70 67 65 64 64 64 65 65 62 60 59 59 59 60 61 61 60 61 61 60 59 58 58 58 59 59 60 61 61 63 65 67 68 69 70 71 72 72
76 77 77 78 78 78 79 79 79 80 80 81 81 82 83 83 83 84 84 84 84 84 84 84 84 84 83 83 82 81 81 80 79 78 78 77 75 73 74 75 75 74 71 69 68 68 68 67 65 63 62 61 61 62 62 59 57 57 56 56 58 59 59 58 58 58 57 56 55 55 55 57 58 59 60 61 62 64 66 67 67 68 69 68 67
74 74 75 75 76 76 76 76 76 77 77 78 79 79 80 80 80 80 81 81 81 82 82 82 82 82 81 81 80 79 78 77 76 75 75 74 72 71 71 72 72 71 69 66 65 65 64 64 63 60 59 59 58 58 59 57 55 55 55 54 55 57 57 56 55 55 54 53 53 53 54 55 57 58 58 59 61 62 64 65 65 65 64 63 62
72 72 72 72 73 73 74 73 73 74 74 75 76 76 77 77 77 78 78 78 78 78 78 78 79 79 78 78 78 77 76 75 74 73 72 71 70 69 68 68 68 68 65 63 62 62 61 61 60 57 56 56 56 56 55 55 54 53 53 53 53 54 55 54 52 52 51 51 51 52 53 54 55 55 56 57 58 59 60 61 61 59 58 59 60
72 71 71 71 71 72 72 72 71 72 72 73 73 74 74 74 74 75 75 76 76 75 75 75 75 76 76 76 76 75 74 73 71 70 69 68 67 66 65 65 65 64 61 59 59 59 59 58 58 56 54 53 54 54 53 52 52 52 51 51 51 52 52 51 50 49 49 49 49 50 51 52 53 53 54 54 55 56 57 57 56 55 55 57 58
72 72 71 71 71 71 71 71 71 71 71 71 71 72 72 72 72 72 73 73 73 73 73 73 73 73 73 74 74 73 72 71 69 67 66 65 63 62 61 62 63 61 58 57 57 56 56 56 56 54 52 51 52 52 50 49 50 50 49 49 49 49 49 49 48 47 47 47 48 49 50 51 52 52 52 52 53 53 54 54 53 53 54 56 58
72 71 71 70 70 70 70 70 70 70 70 70 69 69 70 70 70 70 70 71 71 71 71 71 71 71 72 72 72 72 70 68 66 64 62 61 60 59 59 60 62 60 56 54 54 54 54 54 54 52 50 50 50 49 48 47 47 47 47 46 47 46 46 45 45 45 45 46 46 48 49 50 50 50 50 50 50 51 52 52 51 51 53 56 57
71 70 69 69 69 69 69 69 69 69 69 69 68 68 67 67 68 68 69 69 69 70 70 70 69 70 70 70 70 70 68 66 64 62 60 58 56 56 56 58 61 60 55 52 52 52 52 52 52 50 48 48 47 47 46 45 45 45 45 44 44 44 43 42 42 42 44 45 45 47 48 48 48 47 47 47 48 49 49 49 49 50 53 55 55
70 69 68 68 68 68 68 68 68 68 68 68 68 67 66 66 66 66 67 68 68 68 68 68 68 67 68 68 68 67 66 65 63 61 59 56 54 53 53 55 58 59 54 49 48 49 49 50 51 49 46 45 45 44 44 44 43 43 43 43 42 42 41 40 40 41 42 43 44 45 46 45 45 44 44 45 46 47 47 47 48 50 52 53 53
70 69 68 67 67 67 67 67 67 67 67 67 67 67 66 65 65 65 66 66 67 67 67 66 66 66 66 66 66 65 64 63 62 60 58 55 53 52 51 52 55 56 53 48 46 46 45 45 47 48 44 42 43 42 42 42 42 42 42 41 41 40 39 39 39 40 41 42 43 44 44 43 42 42 42 43 43 45 46 46 47 49 51 51 51
70 69 67 66 66 66 66 66 66 66 66 66 67 66 65 64 64 64 64 65 66 67 66 66 65 65 65 65 65 64 62 61 60 59 57 54 50 48 49 51 54 54 51 46 44 46 45 42 42 44 43 40 40 41 40 40 41 41 40 40 39 38 38 38 39 40 40 41 41 41 41 41 41 41 41 42 43 44 45 46 47 49 49 49 49
70 69 68 66 66 66 66 65 65 65 65 65 65 65 64 64 63 63 64 64 65 66 66 66 65 64 64 64 63 62 61 59 58 57 57 54 49 43 42 47 52 54 52 46 41 43 46 43 39 41 41 39 38 39 39 39 39 39 38 38 38 37 37 37 38 39 39 39 39 39 39 40 40 40 40 41 42 44 44 45 47 48 48 47 48
70 69 68 67 67 66 66 66 65 65 64 64 64 64 64 64 63 63 64 64 64 65 65 65 64 63 63 62 62 61 59 58 56 55 54 54 51 44 38 38 44 51 54 49 41 39 44 45 40 38 40 39 37 37 38 37 37 38 37 36 36 36 36 36 37 38 38 38 38 38 38 39 39 39 39 40 41 43 44 45 46 47 46 46 47
Wind_Direction
286 286 286 286 287 287 287 287 287 287 287 286 286 286 285 285 285 285 285 285 285 285 285 286 286 286 286 286 285 284 283 282 282 281 281 281 281 280 280 279 278 277 276 276 276 275 274 273 272 270 268 265 262 258 256 256 256 256 255 255 255 254 254 252 252 251 251 251 250 250 250 250 250 249 248 247 246 246 245 244 244 244 244 244 244
286 286 287 287 287 287 287 287 287 286 286 286 285 285 285 285 285 285 285 285 285 285 286 286 286 285 284 284 283 283 282 282 281 281 281 281 280 280 280 278 277 275 273 273 273 273 273 272 271 270 268 265 262 258 257 257 257 257 256 255 254 254 254 254 253 252 251 251 251 250 250 250 249 249 248 247 247 246 245 245 244 244 244 244 243
287 287 287 287 287 287 286 286 286 286 285 285 285 285 285 285 285 285 285 285 285 285 285 285 284 283 282 281 282 281 281 281 281 280 280 280 280 279 278 277 275 274 272 271 270 270 270 270 270 269 267 265 262 260 258 258 258 258 257 256 255 254 254 254 254 252 251 250 250 250 250 250 250 248 247 247 247 246 246 245 245 245 244 244 244
287 287 287 286 286 286 285 285 285 285 285 285 285 285 285 284 284 284 284 285 285 285 284 283 282 281 280 280 280 280 280 280 280 280 280 280 280 279 278 277 275 274 272 271 269 268 268 267 267 267 267 265 263 261 259 259 259 259 258 257 256 255 254 254 254 253 252 251 250 250 249 249 249 249 248 247 247 247 246 246 245 245 245 245 244
286 286 286 286 285 285 285 285 285 285 285 285 285 285 284 284 284 284 284 284 284 283 282 281 280 279 279 279 279 279 279 279 279 279 279 279 279 278 278 277 276 275 273 272 271 269 268 266 265 265 264 264 263 262 260 260 260 260 259 259 258 256 255 254 254 254 253 252 251 249 248 248 248 249 249 248 247 247 246 246 246 245 245 245 244
286 286 286 285 285 284 284 284 284 285 284 284 284 284 284 284 284 284 284 283 282 281 280 279 279 279 279 279 280 280 280 280 279 279 279 279 278 278 277 276 276 275 274 273 272 271 269 268 266 264 263 262 262 262 261 261 260 260 260 260 259 258 256 255 255 254 254 253 252 250 249 248 247 248 248 249 249 248 247 246 246 246 245 245 245
286 285 285 284 284 284 284 284 284 284 284 284 284 284 284 284 284 283 283 282 281 280 280 280 280 280 280 280 280 280 280 281 281 280 280 279 279 279 278 278 277 276 275 274 273 272 271 269 268 266 264 263 262 261 261 261 261 261 261 260 259 259 257 256 255 255 254 254 253 252 250 249 247 247 247 248 248 249 249 248 246 246 246 246 245
285 285 284 284 284 284 284 284 284 284 284 284 284 284 284 283 283 282 282 281 281 281 281 280 281 281 281 281 281 281 281 281 281 281 281 280 280 279 279 279 278 277 277 276 275 274 272 271 269 268 266 265 263 262 261 260 260 260 260 260 260 259 258 257 256 255 255 254 254 253 252 251 249 248 248 247 247 248 249 250 249 247 246 246 246
284 284 284 284 284 284 285 285 284 284 284 284 284 283 283 283 282 282 281 281 281 281 281 281 281 282 282 282 282 282 282 281 281 281 281 280 280 279 279 278 278 277 277 276 275 274 273 272 271 270 268 267 265 264 262 261 260 259 259 259 259 259 259 258 257 256 256 255 255 254 253 252 251 250 249 248 248 247 248 250 251 250 248 247 246
284 284 284 285 285 285 285 285 285 284 284 284 283 283 283 282 282 282 282 282 282 282 282 282 282 282 282 282 282 282 282 282 281 281 280 280 279 279 278 278 277 277 276 275 275 274 273 272 271 270 269 268 267 265 264 262 261 260 259 258 258 258 258 258 257 257 256 256 256 255 255 254 253 252 251 250 249 248 247 248 250 252 251 250 248
285 285 286 286 286 286 285 285 285 285 285 284 284 284 283 283 283 283 283 283 283 283 283 283 283 283 283 283 282 282 282 282 281 281 280 279 279 278 278 277 277 276 276 275 274 274 273 272 271 270 269 268 267 266 265 264 263 261 260 259 258 257 257 257 257 257 256 256 256 256 255 255 254 253 252 252 250 249 248 247 248 250 252 252 251
286 287 287 286 286 286 286 285 285 285 285 285 284 284 284 283 283 283 283 283 283 283 283 283 283 283 283 282 282 282 281 281 280 280 279 279 279 278 278 277 277 276 276 275 275 274 274 273 272 271 270 269 267 266 265 264 263 262 261 260 259 258 257 256 256 256 256 255 255 255 255 255 255 254 254 253 252 251 250 248 248 249 250 251 252
287 287 286 286 286 286 285 285 285 285 284 284 284 283 283 283 283 283 283 283 283 283 283 282 282 282 282 282 281 281 281 280 280 280 279 279 279 278 278 278 277 277 276 276 275 275 274 273 272 271 270 269 268 267 266 265 263 262 261 261 260 259 258 257 256 255 255 255 254 254 254 254 254 254 254 253 253 252 251 250 249 249 249 250 251
286 286 286 285 285 285 285 284 284 284 284 283 283 283 283 283 283 283 282 282 282 282 282 282 282 282 282 282 282 282 282 282 281 281 280 280 280 279 278 278 277 277 276 276 275 274 273 272 271 270 270 268 267 266 265 264 263 262 261 260 259 259 258 257 256 256 255 254 254 253 253 253 253 253 253 253 253 252 251 250 249 249 249 249 249
285 285 285 285 284 284 284 284 284 283 283 283 283 283 283 283 283 283 283 283 283 283 283 283 283 283 284 283 283 283 283 283 282 282 281 281 280 279 279 278 277 276 276 275 274 274 273 272 271 270 269 268 267 266 265 263 262 262 261 260 259 258 258 257 257 256 256 255 254 253 253 252 252 252 252 252 252 252 251 251 250 249 248 248 248
285 285 284 284 284 284 284 284 284 283 283 283 283 283 284 284 284 284 284 284 284 284 284 284 284 284 284 284 284 283 283 283 283 282 282 281 280 280 279 278 278 277 276 275 274 273 272 272 271 270 269 268 267 266 265 264 263 262 261 261 260 259 259 258 258 258 257 257 256 256 255 254 253 252 252 252 252 252 251 251 251 250 249 247 247
285 285 284 284 284 284 284 284 284 284 284 285 285 285 285 285 285 285 285 284 284 284 284 284 284 284 284 284 284 284 284 284 283 283 283 282 282 281 280 279 278 277 276 275 274 273 272 271 271 270 269 268 267 266 265 264 264 263 262 261 261 260 260 259 259 259 258 258 258 257 257 256 256 255 254 253 253 252 252 252 252 251 251 249 248
285 285 285 285 285 285 285 285 285 285 286 286 285 285 285 285 285 285 285 285 285 285 285 285 285 285 285 285 285 285 285 285 285 284 284 283 283 282 281 280 279 278 277 276 275 274 273 272 271 271 270 269 268 268 267 266 265 264 263 262 262 261 261 260 260 259 259 259 258 258 258 257 257 257 256 256 255 254 254 253 253 253 252 252 251
286 286 286 286 287 286 287 287 287 287 287 286 286 286 286 286 286 286 286 286 286 286 286 286 286 286 286 286 286 286 285 285 285 284 284 283 283 282 282 281 281 280 279 278 277 276 274 273 273 272 271 270 269 268 268 267 266 265 264 263 263 262 261 260 260 259 259 259 259 258 258 258 258 257 257 257 256 256 255 255 254 254 254 253 253
288 288 288 288 288 288 288 288 287 287 287 287 287 287 287 286 286 286 286 286 287 287 286 286 286 286 286 286 286 285 285 285 285 284 284 284 283 283 282 282 281 280 279 278 277 276 275 274 273 272 271 271 270 269 268 267 266 266 265 264 262 262 261 260 259 259 259 259 258 258 258 258 258 258 258 258 257 257 257 256 255 255 255 254 254
288 288 288 288 287 287 287 287 286 286 286 286 286 286 286 286 286 286 286 286 286 286 286 286 286 286 286 286 286 286 285 285 285 285 284 284 283 283 282 281 281 280 279 278 277 276 275 275 274 273 272 271 270 269 268 267 266 265 264 263 262 261 260 259 259 259 259 258 258 258 258 258 258 258 259 259 259 258 258 258 257 256 256 255 254
287 286 286 286 286 286 286 285 285 285 285 285 286 286 286 286 286 286 286 286 286 287 287 287 287 287 287 286 286 286 286 285 285 284 284 284 283 283 282 282 281 281 280 280 279 278 278 277 276 275 273 272 271 270 269 267 266 265 264 263 262 261 260 259 258 258 258 258 258 258 258 258 258 259 259 259 259 259 259 259 259 258 257 256 256
286 286 286 286 286 286 286 286 286 286 286 286 286 286 286 287 287 287 287 287 287 287 287 287 287 287 287 286 286 286 285 285 285 285 285 284 284 284 284 283 283 282 282 281 281 280 279 278 277 276 274 273 271 270 269 268 266 265 264 263 263 262 261 260 259 258 258 258 258 259 259 258 258 259 259 259 259 259 260 260 260 260 259 258 257
287 287 287 287 287 286 286 287 287 287 287 287 287 287 287 287 287 287 287 287 287 287 287 287 286 286 286 286 286 286 286 285 285 285 285 285 285 285 285 284 284 283 283 282 282 281 279 278 277 276 275 273 272 271 270 268 267 266 264 263 263 262 261 261 260 259 258 258 258 258 258 258 259 259 259 259 259 259 259 260 260 260 260 259 258
288 288 288 288 287 287 287 288 288 287 287 287 287 287 287 287 287 287 287 287 287 287 287 287 287 287 287 286 286 286 286 286 286 286 286 286 286 286 286 285 285 284 284 283 282 281 280 279 278 277 276 275 273 272 270 269 268 267 265 264 264 263 262 262 261 260 259 259 258 258 258 258 258 259 259 258 258 258 258 259 259 259 259 259 259
289 289 289 289 288 288 288 288 288 288 288 288 288 288 288 288 288 288 288 287 287 287 287 287 287 287 287 287 287 287 287 287 287 287 287 287 287 287 287 286 286 285 285 284 284 283 282 282 281 279 278 276 275 274 272 271 270 268 267 266 265 264 263 263 262 261 260 260 259 258 258 258 258 258 258 258 258 258 258 258 258 258 258 259 259
290 290 290 289 289 289 289 289 289 289 288 288 288 288 288 288 288 288 288 288 288 288 288 288 288 288 288 288 288 288 288 288 288 288 289 288 288 288 288 287 287 287 286 286 285 285 284 283 282 280 279 278 277 275 274 272 271 270 269 268 266 265 264 263 263 262 261 261 260 259 259 258 258 258 258 258 258 258 258 257 257 257 257 258 258
291 291 291 290 290 290 290 290 289 289 289 289 289 289 289 289 289 289 289 289 289 289 289 289 289 289 289 289 289 289 289 289 289 289 289 289 289 289 288 288 288 287 287 286 285 284 283 282 281 281 279 278 277 275 274 273 272 271 269 268 267 266 265 264 263 262 261 261 260 260 259 258 258 257 257 257 257 257 257 257 257 257 257 257 257
292 291 291 290 290 290 290 290 290 289 289 289 289 289 289 289 289 289 289 289 289 289 289 289 289 289 289 290 290 290 290 290 290 290 290 290 289 289 289 289 288 287 286 285 284 283 282 282 281 280 279 278 277 276 275 274 272 271 270 269 268 267 265 264 263 263 262 261 260 259 258 258 257 256 256 256 256 256 257 257 257 257 257 257 257
292 292 292 291 291 291 291 291 290 290 290 290 290 290 290 290 290 290 290 290 290 290 290 290 290 290 291 291 291 291 291 291 290 290 290 290 289 289 289 288 288 287 286 285 285 284 284 283 281 281 280 280 279 277 276 274 273 272 271 270 269 268 267 266 265 263 262 261 260 259 258 257 256 255 255 255 255 255 256 256 256 257 257 257 256
294 294 293 293 293 292 292 292 292 292 292 291 291 291 291 291 291 291 291 291 291 291 291 291 291 291 291 291 291 292 291 291 291 291 291 290 290 289 289 289 288 288 288 287 286 286 285 284 283 283 282 281 280 279 277 276 274 273 272 271 270 270 269 268 267 265 263 262 260 259 258 256 255 255 254 254 254 255 255 256 256 256 256 256 256
295 295 295 294 294 294 294 294 294 293 293 293 293 293 293 293 293 293 293 293 292 292 292 293 293 293 293 293 293 292 292 292 291 291 291 291 291 291 291 291 291 290 289 288 287 287 286 286 285 284 283 281 280 279 278 277 275 274 273 272 271 270 270 269 268 266 264 263 261 259 258 257 256 255 255 255 255 255 255 256 256 256 255 255 255
296 295 295 295 295 295 294 294 294 294 294 294 294 294 294 294 294 294 294 294 294 294 294 294 294 294 293 293 293 292 292 292 292 292 293 293 293 293 293 292 292 290 289 288 288 288 288 286 285 284 283 282 280 279 278 276 275 274 273 272 271 270 269 268 267 266 265 263 261 259 258 257 257 256 255 255 255 255 255 255 255 255 254 254 254
296 296 295 295 295 294 294 294 294 294 294 293 293 293 293 294 294 294 294 294 294 294 294 293 293 293 293 293 293 293 293 293 294 294 294 294 294 293 292 291 291 289 289 289 289 289 287 286 284 283 282 281 280 278 277 276 275 274 273 272 271 270 269 268 267 266 264 263 261 260 258 258 257 257 256 256 255 255 254 254 254 253 253 253 252
296 296 295 295 295 295 294 294 294 294 294 294 293 293 294 294 294 293 293 293 293 293 293 293 293 293 293 293 294 294 294 294 295 294 294 293 293 292 291 290 290 289 289 289 289 288 286 285 284 283 282 281 279 277 276 275 274 274 273 272 271 270 268 267 266 265 263 262 261 260 259 258 258 257 257 256 255 254 254 253 253 252 251 251 251
298 297 297 296 296 296 296 295 295 295 295 295 295 294 294 294 294 294 294 294 294 294 294 294 294 294 294 294 295 295 295 294 294 294 293 292 292 291 291 291 291 290 290 289 288 287 285 284 284 283 282 281 280 278 276 275 275 274 273 272 271 270 268 266 265 264 263 262 261 260 260 259 258 257 256 255 255 254 253 253 252 251 250 250 250
301 300 299 299 298 298 297 297 297 296 296 296 296 295 295 295 295 295 295 295 295 295 294 295 295 295 295 295 295 294 294 294 293 292 292 291 291 292 292 292 292 291 290 289 289 288 286 285 284 284 283 282 281 279 277 276 275 274 273 272 271 269 268 266 265 263 263 262 262 261 260 259 258 256 255 254 254 253 252 251 250 249 249 249 248
303 302 301 301 300 300 299 299 298 298 297 297 296 296 296 296 296 296 296 296 295 295 296 296 295 295 295 294 294 294 293 293 293 292 292 292 293 293 293 293 292 291 291 291 290 289 288 287 286 285 284 282 281 279 278 277 275 274 273 272 271 269 267 266 265 264 263 262 262 261 260 258 257 255 254 253 252 251 250 249 248 247 247 248 248
305 304 303 303 302 301 301 300 300 299 299 298 298 297 297 297 297 297 297 297 297 297 297 296 296 296 295 295 295 295 294 294 294 293 294 294 294 295 294 294 293 292 292 292 291 290 289 288 287 286 284 282 280 279 278 277 276 274 273 271 270 268 267 265 264 264 263 262 261 260 258 257 255 253 252 250 249 248 247 247 246 246 246 247 247
306 305 305 304 303 303 302 302 301 301 301 300 300 299 299 299 299 298 298 298 298 297 297 297 297 297 297 297 296 296 296 295 295 295 296 296 296 296 296 295 294 293 293 292 291 290 289 288 287 285 284 282 281 280 279 278 276 274 272 270 269 268 267 265 264 264 263 261 260 258 256 254 253 251 249 248 247 246 246 245 245 245 245 246 247
307 307 306 305 305 304 304 303 303 302 302 301 300 300 300 300 299 299 299 299 298 298 298 298 298 298 298 298 298 297 297 297 297 297 297 297 297 297 296 295 294 293 293 292 291 290 288 287 286 285 284 283 282 280 279 278 277 274 272 270 268 267 266 265 264 263 262 260 259 256 254 252 251 250 249 248 247 246 246 246 246 246 246 247 246
310 309 308 307 306 305 305 304 304 303 302 302 301 301 301 301 301 300 300 300 300 300 300 300 300 300 299 299 299 298 298 298 298 298 298 298 298 297 296 295 294 293 292 292 292 290 289 288 287 286 285 284 282 280 279 278 276 274 272 270 268 266 266 264 263 262 261 259 257 255 253 252 251 250 249 248 247 247 247 247 247 247 247 246 245
313 312 311 310 309 308 307 307 306 306 305 304 304 303 303 303 303 303 302 302 302 302 301 301 301 300 300 300 299 299 299 298 299 299 299 299 299 298 298 296 294 293 293 293 292 291 290 289 288 287 285 284 282 281 279 278 276 274 272 270 268 267 266 264 263 261 259 257 256 254 253 252 250 249 248 247 246 246 246 246 245 245 244 244 242
316 315 314 313 312 311 311 310 309 309 308 307 306 306 305 305 305 305 304 304 303 303 303 302 302 302 301 301 300 300 300 300 300 300 300 300 300 300 299 297 295 293 294 294 293 292 291 290 288 287 286 284 282 281 279 278 276 274 272 270 268 267 266 264 263 261 259 256 255 253 252 251 249 248 247 246 245 244 244 244 243 242 241 241 240
318 317 316 316 315 314 313 312 312 311 310 309 308 308 308 307 307 306 306 305 305 305 305 304 304 303 302 302 301 301 302 302 302 302 302 302 302 302 301 299 296 294 294 295 294 293 291 290 288 287 286 284 283 281 280 278 276 274 272 270 268 267 265 264 263 261 259 256 254 252 251 250 249 248 247 246 245 244 244 243 242 240 239 239 239
321 320 319 318 317 316 315 315 314 313 312 311 311 310 310 309 309 309 308 307 307 307 306 305 305 304 304 303 303 303 304 304 304 304 303 303 304 304 303 300 297 296 296 297 295 293 292 290 289 287 286 285 283 282 280 278 276 274 272 270 268 266 264 263 261 260 258 255 253 251 250 250 249 249 247 246 245 244 243 242 241 239 239 238 238
323 322 322 321 320 319 318 317 316 315 314 314 313 312 312 312 311 311 310 309 308 307 307 306 306 306 306 306 306 306 306 307 307 306 306 306 306 305 304 301 298 296 297 297 295 293 292 291 290 288 287 285 283 282 280 278 276 273 271 269 267 265 263 261 259 257 255 254 252 251 250 249 249 248 247 246 244 244 243 242 240 239 239 239 238
325 325 324 323 322 321 320 319 318 317 316 316 315 315 314 314 313 312 311 310 309 308 308 308 308 309 309 308 308 309 309 309 309 308 307 308 308 307 305 301 298 297 297 298 296 293 290 290 289 288 287 285 284 281 279 277 275 273 271 269 266 264 262 259 256 254 253 252 251 250 249 248 247 246 245 244 243 243 242 241 239 239 238 238 237
327 326 326 325 324 323 322 321 320 319 318 318 317 316 315 315 314 313 312 312 311 311 311 311 311 312 311 311 311 311 311 311 311 310 308 308 308 309 308 304 300 299 298 299 298 295 292 290 289 289 287 286 283 281 279 277 274 272 270 268 266 263 260 257 254 252 250 250 250 250 249 247 245 243 242 241 240 240 240 238 237 237 237 236 235
328 328 328 327 325 324 323 323 322 321 320 319 318 317 316 316 315 315 314 313 313 313 313 314 314 314 314 313 313 313 313 313 312 311 310 309 308 309 309 306 303 301 300 300 300 298 295 293 292 290 288 286 284 281 279 276 274 272 270 267 265 262 259 255 252 250 249 248 247 247 246 245 244 242 240 239 239 239 238 237 236 236 236 234 234
330 330 329 328 327 326 325 325 324 323 322 321 319 318 318 317 317 316 316 316 315 315 316 316 317 317 316 316 315 315 315 314 314 313 312 311 309 309 309 307 304 303 302 301 301 299 297 296 294 292 290 288 285 282 279 276 274 272 269 267 264 261 258 254 251 249 248 246 244 243 243 242 241 240 239 238 239 239 238 237 236 236 235 234 233
Height
10499 10495 10491 10487 10485 10481 10477 10473 10468 10465 10462 10459 10455 10452 10449 10446 10443 10440 10437 10434 10430 10427 10424 10421 10418 10415 10411 10408 10405 10402 10399 10397 10394 10392 10391 10389 10388 10387 10386 10385 10385 10384 10384 10383 10383 10382 10382 10381 10380 10380 10380 10382 10382 10383 10384 10385 10387 10389 10391 10392 10393 10394 10395 10396 10397 10400 10403 10404 10404 10406 10408 10408 10410 10412 10414 10415 10417 10419 10422 10425 10427 10429 10432 10434 10437
10487 10483 10480 10476 10473 10469 10464 10460 10455 10452 10449 10446 10443 10439 10436 10433 10430 10427 10424 10421 10418 10415 10411 10408 10405 10403 10400 10397 10395 10391 10388 10386 10384 10381 10380 10379 10378 10377 10376 10376 10376 10375 10374 10374 10374 10373 10372 10371 10371 10370 10370 10371 10372 10373 10374 10375 10376 10378 10379 10381 10382 10384 10384 10383 10385 10389 10392 10393 10393 10396 10397 10397 10399 10400 10401 10403 10406 10409 10411 10413 10415 10418 10420 10422 10426
10475 10471 10468 10465 10461 10456 10451 10446 10442 10439 10436 10433 10430 10427 10424 10421 10418 10414 10411 10408 10405 10402 10399 10396 10393 10391 10389 10387 10385 10382 10378 10375 10374 10373 10371 10369 10368 10367 10366 10365 10365 10365 10364 10364 10364 10364 10363 10362 10361 10360 10360 10361 10362 10363 10363 10364 10364 10365 10366 10368 10370 10372 10373 10372 10372 10375 10380 10381 10382 10386 10386 10385 10387 10387 10389 10392 10394 10397 10399 10401 10404 10405 10407 10410 10414
10462 10459 10455 10452 10448 10443 10438 10433 10430 10426 10423 10421 10418 10415 10412 10408 10405 10401 10398 10395 10392 10389 10387 10384 10382 10380 10378 10376 10375 10373 10370 10366 10364 10363 10361 10360 10358 10355 10353 10353 10353 10353 10352 10352 10353 10353 10353 10353 10351 10350 10349 10349 10350 10352 10352 10351 10351 10352 10353 10355 10357 10359 10361 10361 10360 10361 10365 10368 10370 10374 10374 10374 10375 10373 10376 10381 10382 10384 10387 10388 10391 10392 10394 10397 10401
10450 10446 10443 10439 10435 10430 10425 10421 10418 10415 10412 10409 10405 10402 10399 10395 10392 10388 10385 10382 10379 10376 10374 10372 10370 10369 10367 10365 10363 10362 10360 10358 10356 10353 10350 10349 10347 10344 10341 10340 10340 10340 10340 10340 10341 10342 10341 10341 10341 10340 10339 10337 10337 10339 10340 10339 10338 10338 10339 10341 10344 10346 10347 10349 10348 10347 10349 10353 10356 10360 10360 10362 10364 10361 10361 10368 10369 10371 10374 10375 10377 10379 10381 10383 10387
10437 10434 10430 10426 10422 10417 10413 10410 10407 10404 10400 10397 10393 10389 10385 10382 10378 10375 10372 10369 10366 10364 10362 10360 10359 10357 10355 10353 10351 10349 10348 10346 10344 10343 10340 10337 10334 10332 10330 10327 10327 10327 10327 10327 10328 10328 10328 10328 10329 10328 10327 10326 10325 10326 10327 10326 10325 10325 10325 10327 10329 10330 10333 10336 10336 10332 10333 10337 10339 10342 10345 10348 10351 10349 10349 10353 10354 10355 10359 10363 10364 10364 10367 10370 10373
10424 10421 10417 10413 10409 10406 10402 10399 10396 10392 10388 10384 10380 10376 10372 10369 10365 10362 10359 10356 10354 10352 10350 10348 10346 10344 10343 10341 10340 10338 10336 10333 10330 10329 10327 10325 10322 10318 10316 10313 10312 10312 10312 10312 10312 10313 10314 10314 10314 10314 10314 10313 10312 10313 10313 10312 10312 10310 10310 10312 10313 10314 10317 10320 10321 10318 10318 10321 10321 10324 10329 10332 10335 10336 10336 10339 10341 10341 10341 10345 10349 10350 10352 10356 10359
10411 10408 10404 10400 10396 10394 10391 10388 10384 10379 10375 10371 10367 10363 10359 10356 10352 10349 10346 10344 10342 10339 10337 10335 10333 10331 10329 10328 10326 10325 10324 10322 10318 10315 10313 10311 10309 10306 10303 10300 10297 10295 10295 10295 10296 10296 10297 10297 10297 10297 10298 10298 10298 10298 10298 10298 10297 10296 10295 10295 10297 10298 10300 10302 10304 10303 10302 10304 10304 10306 10311 10314 10317 10321 10322 10323 10327 10330 10327 10324 10328 10334 10338 10342 10344
10399 10395 10391 10387 10384 10381 10378 10374 10370 10366 10363 10359 10355 10351 10347 10344 10340 10337 10334 10332 10329 10326 10324 10321 10319 10318 10316 10314 10313 10311 10309 10308 10305 10303 10300 10297 10295 10292 10289 10287 10283 10280 10279 10278 10279 10279 10279 10279 10278 10279 10280 10280 10280 10281 10282 10282 10282 10282 10280 10279 10279 10280 10281 10283 10286 10287 10286 10287 10287 10288 10292 10295 10298 10303 10306 10308 10310 10316 10318 10312 10307 10311 10320 10326 10328
10386 10382 10378 10375 10372 10368 10365 10361 10357 10354 10350 10347 10343 10339 10335 10332 10328 10324 10321 10319 10316 10313 10310 10307 10304 10303 10302 10300 10299 10296 10294 10292 10290 10287 10285 10283 10280 10277 10275 10272 10269 10266 10263 10262 10262 10261 10260 10260 10260 10261 10261 10261 10261 10261 10262 10263 10263 10264 10264 10263 10262 10263 10262 10263 10266 10268 10268 10269 10270 10270 10273 10275 10278 10283 10287 10289 10292 10297 10304 10304 10294 10290 10298 10306 10308
10374 10370 10367 10363 10359 10356 10352 10348 10345 10341 10338 10334 10330 10326 10322 10318 10315 10311 10307 10305 10301 10298 10295 10292 10289 10287 10286 10285 10283 10281 10279 10276 10274 10271 10268 10267 10265 10263 10260 10257 10254 10251 10248 10246 10245 10243 10242 10242 10242 10242 10241 10241 10242 10242 10242 10242 10242 10243 10243 10243 10243 10243 10243 10243 10245 10248 10249 10250 10250 10251 10253 10255 10257 10263 10266 10267 10271 10278 10284 10288 10286 10278 10279 10285 10286
10363 10359 10355 10351 10347 10343 10339 10336 10332 10329 10325 10320 10316 10313 10309 10304 10301 10297 10294 10290 10287 10284 10281 10278 10274 10272 10270 10269 10267 10265 10263 10261 10258 10255 10252 10250 10248 10246 10244 10241 10238 10235 10232 10229 10227 10224 10222 10222 10221 10220 10220 10220 10221 10221 10221 10220 10221 10221 10221 10221 10221 10221 10221 10222 10224 10227 10227 10228 10230 10230 10231 10234 10236 10240 10243 10244 10249 10257 10261 10267 10272 10266 10263 10269 10267
10353 10348 10343 10339 10334 10331 10327 10323 10320 10316 10312 10307 10303 10300 10295 10290 10287 10284 10280 10277 10273 10270 10266 10263 10260 10257 10255 10253 10250 10248 10246 10243 10241 10239 10236 10234 10231 10229 10226 10224 10221 10217 10214 10212 10209 10206 10203 10201 10200 10198 10197 10197 10197 10197 10197 10197 10197 10198 10198 10199 10198 10197 10197 10198 10201 10204 10204 10205 10208 10208 10209 10213 10215 10217 10219 10221 10226 10233 10236 10244 10252 10247 10246 10257 10255
10341 10337 10332 10327 10322 10317 10314 10310 10307 10303 10299 10294 10290 10286 10281 10277 10273 10270 10267 10263 10259 10256 10252 10248 10244 10241 10238 10236 10233 10230 10227 10225 10222 10220 10218 10215 10213 10211 10208 10205 10203 10199 10195 10192 10189 10187 10184 10181 10178 10176 10174 10173 10172 10172 10172 10172 10172 10173 10174 10174 10174 10174 10173 10173 10176 10179 10179 10181 10183 10184 10186 10190 10193 10195 10195 10198 10202 10207 10212 10219 10225 10225 10228 10240 10242
10329 10325 10319 10314 10309 10304 10300 10297 10293 10288 10284 10279 10275 10271 10267 10263 10259 10256 10252 10247 10243 10239 10235 10232 10228 10224 10220 10217 10214 10211 10209 10205 10202 10199 10197 10195 10192 10190 10187 10185 10182 10179 10175 10171 10168 10165 10162 10158 10155 10153 10151 10149 10148 10147 10146 10147 10146 10148 10150 10150 10150 10150 10149 10150 10153 10154 10155 10157 10157 10158 10163 10167 10171 10172 10171 10173 10178 10181 10186 10192 10197 10200 10207 10217 10223
10315 10311 10305 10299 10294 10290 10286 10282 10278 10273 10269 10264 10259 10255 10251 10247 10243 10239 10234 10230 10226 10222 10218 10214 10211 10206 10203 10199 10196 10193 10189 10186 10182 10179 10176 10173 10170 10168 10165 10162 10159 10157 10154 10150 10146 10143 10139 10136 10132 10129 10127 10125 10124 10123 10122 10123 10122 10123 10125 10125 10126 10126 10125 10127 10131 10130 10131 10133 10133 10134 10139 10144 10148 10147 10146 10150 10154 10156 10160 10165 10169 10174 10182 10191 10199
10301 10296 10290 10284 10280 10276 10271 10267 10262 10258 10253 10248 10243 10239 10235 10231 10226 10222 10216 10212 10208 10205 10201 10197 10193 10189 10185 10181 10177 10173 10169 10165 10162 10158 10154 10150 10147 10144 10141 10138 10135 10133 10130 10127 10124 10120 10117 10114 10111 10107 10104 10102 10100 10099 10099 10099 10099 10100 10100 10101 10101 10101 10101 10104 10106 10105 10107 10109 10109 10110 10114 10118 10122 10122 10123 10127 10130 10132 10136 10140 10145 10148 10154 10164 10175
10285 10280 10274 10269 10265 10261 10255 10251 10247 10243 10238 10232 10227 10223 10218 10213 10209 10204 10199 10195 10191 10187 10183 10178 10174 10170 10166 10161 10157 10153 10148 10144 10140 10136 10132 10128 10124 10121 10117 10114 10111 10108 10106 10104 10101 10098 10095 10092 10090 10087 10084 10080 10078 10077 10076 10075 10075 10076 10077 10077 10077 10077 10077 10081 10081 10079 10081 10082 10083 10086 10088 10091 10095 10095 10096 10102 10105 10108 10112 10117 10120 10124 10128 10136 10148
10269 10264 10258 10254 10249 10244 10239 10235 10231 10226 10221 10215 10209 10205 10200 10195 10190 10185 10181 10176 10172 10168 10164 10159 10154 10150 10145 10141 10136 10131 10127 10122 10118 10114 10110 10106 10102 10099 10095 10092 10088 10085 10083 10081 10078 10076 10073 10071 10069 10066 10064 10060 10058 10056 10054 10054 10053 10053 10054 10054 10053 10052 10053 10056 10057 10053 10055 10056 10056 10059 10061 10064 10067 10067 10069 10075 10079 10081 10087 10092 10095 10100 10105 10111 10121
10252 10247 10242 10237 10232 10228 10223 10218 10213 10208 10202 10196 10191 10186 10181 10175 10170 10166 10161 10157 10152 10148 10144 10140 10135 10130 10125 10121 10116 10111 10106 10101 10097 10093 10089 10085 10081 10078 10074 10071 10068 10064 10062 10059 10057 10055 10053 10051 10049 10046 10043 10040 10038 10036 10034 10034 10033 10031 10030 10030 10029 10028 10028 10032 10032 10029 10030 10030 10030 10033 10036 10038 10039 10039 10042 10049 10052 10055 10059 10065 10069 10075 10081 10087 10094
10236 10231 10225 10220 10216 10211 10205 10200 10195 10190 10184 10178 10173 10167 10162 10157 10152 10147 10143 10138 10133 10129 10124 10120 10115 10110 10106 10101 10096 10091 10085 10080 10076 10072 10068 10065 10061 10057 10054 10051 10048 10044 10041 10039 10036 10034 10032 10031 10029 10026 10023 10021 10018 10016 10014 10013 10012 10010 10007 10006 10005 10005 10005 10008 10009 10008 10007 10005 10005 10010 10013 10014 10013 10013 10018 10023 10026 10028 10032 10037 10043 10050 10056 10062 10067
10220 10215 10210 10204 10199 10193 10188 10182 10177 10172 10167 10160 10154 10149 10143 10138 10133 10129 10124 10119 10115 10110 10105 10100 10095 10090 10085 10080 10076 10071 10066 10061 10056 10052 10048 10044 10041 10037 10034 10031 10028 10024 10020 10018 10015 10013 10011 10009 10008 10005 10002 10000 9998 9995 9994 9992 9991 9989 9986 9983 9981 9981 9983 9985 9986 9987 9986 9982 9983 9988 9991 9992 9990 9991 9997 10000 10001 10003 10006 10011 10019 10025 10031 10037 10040
10204 10199 10194 10188 10182 10175 10170 10165 10160 10155 10149 10142 10136 10130 10125 10119 10114 10110 10105 10100 10096 10091 10086 10081 10076 10071 10066 10061 10056 10051 10047 10042 10038 10033 10029 10025 10021 10017 10014 10010 10008 10004 10001 9998 9995 9993 9990 9988 9986 9983 9981 9979 9976 9974 9972 9970 9969 9967 9965 9963 9960 9959 9960 9963 9964 9965 9965 9963 9964 9967 9970 9970 9968 9970 9976 9979 9979 9981 9984 9988 9995 9999 10005 10012 10015
10187 10182 10176 10170 10163 10157 10152 10147 10143 10138 10132 10125 10119 10113 10108 10103 10097 10093 10088 10083 10078 10073 10068 10063 10059 10054 10049 10044 10039 10034 10029 10024 10020 10015 10010 10006 10002 9998 9995 9991 9988 9986 9982 9979 9976 9972 9970 9967 9964 9962 9960 9958 9955 9953 9951 9948 9946 9944 9944 9943 9941 9939 9939 9941 9943 9945 9945 9945 9946 9949 9951 9949 9948 9951 9956 9958 9958 9961 9964 9967 9972 9976 9980 9987 9990
10169 10164 10158 10152 10146 10140 10135 10130 10126 10120 10114 10108 10102 10096 10091 10086 10081 10076 10071 10066 10061 10056 10051 10046 10041 10036 10031 10026 10021 10016 10011 10006 10001 9997 9992 9988 9984 9980 9976 9973 9969 9966 9962 9958 9954 9951 9948 9946 9943 9941 9939 9937 9934 9932 9930 9927 9924 9922 9922 9923 9921 9920 9920 9921 9923 9924 9924 9925 9927 9930 9932 9930 9929 9932 9936 9937 9936 9940 9944 9947 9951 9955 9957 9962 9966
10152 10146 10141 10135 10129 10123 10118 10114 10109 10103 10097 10091 10085 10079 10074 10069 10064 10059 10054 10049 10044 10038 10033 10028 10023 10019 10014 10009 10003 9998 9993 9988 9984 9980 9975 9970 9966 9962 9958 9953 9949 9946 9942 9937 9933 9929 9926 9923 9921 9919 9917 9915 9913 9911 9909 9907 9905 9902 9902 9902 9902 9902 9902 9902 9903 9904 9904 9906 9908 9910 9912 9911 9911 9913 9916 9916 9917 9919 9923 9927 9931 9935 9936 9940 9945
10135 10130 10125 10118 10112 10107 10102 10097 10091 10086 10080 10074 10068 10063 10058 10052 10047 10042 10036 10032 10027 10021 10016 10011 10006 10002 9997 9992 9986 9981 9976 9971 9966 9962 9957 9952 9948 9943 9938 9934 9929 9925 9922 9917 9913 9909 9906 9903 9900 9899 9896 9894 9893 9891 9888 9886 9885 9884 9882 9882 9882 9882 9883 9884 9884 9884 9885 9886 9889 9890 9892 9892 9893 9895 9896 9896 9898 9900 9903 9907 9911 9914 9917 9921 9927
10119 10114 10109 10102 10096 10091 10086 10081 10075 10069 10064 10058 10052 10046 10041 10036 10031 10025 10020 10015 10010 10004 9999 9994 9989 9984 9979 9974 9969 9963 9958 9953 9949 9945 9939 9934 9929 9924 9919 9915 9911 9907 9903 9899 9895 9892 9889 9886 9883 9881 9878 9876 9874 9872 9869 9867 9866 9865 9863 9863 9863 9863 9864 9865 9865 9866 9867 9868 9870 9871 9873 9873 9874 9875 9877 9878 9879 9881 9883 9887 9891 9894 9898 9904 9910
10103 10098 10093 10087 10081 10076 10072 10066 10060 10054 10049 10043 10037 10031 10025 10020 10014 10009 10004 9999 9993 9987 9982 9977 9972 9967 9962 9957 9952 9946 9941 9936 9931 9927 9922 9917 9911 9907 9902 9898 9894 9890 9886 9882 9878 9875 9873 9871 9868 9864 9860 9858 9856 9854 9851 9849 9848 9846 9845 9844 9845 9844 9845 9847 9848 9848 9849 9851 9852 9853 9854 9854 9855 9856 9858 9860 9861 9862 9865 9869 9873 9876 9881 9887 9892
10089 10083 10078 10072 10066 10061 10057 10051 10045 10039 10034 10027 10021 10015 10009 10004 9998 9993 9987 9982 9976 9971 9965 9960 9955 9950 9945 9940 9935 9929 9923 9918 9914 9909 9904 9899 9895 9890 9887 9883 9878 9873 9868 9864 9861 9858 9855 9853 9851 9848 9844 9841 9838 9835 9833 9831 9829 9828 9828 9828 9828 9827 9827 9829 9830 9831 9832 9833 9833 9834 9835 9836 9837 9838 9840 9842 9844 9845 9848 9853 9857 9860 9865 9870 9874
10074 10068 10062 10056 10051 10046 10041 10035 10029 10023 10017 10011 10005 9999 9993 9987 9982 9976 9970 9965 9959 9954 9948 9943 9938 9934 9928 9923 9918 9912 9905 9900 9896 9892 9887 9883 9879 9874 9870 9867 9862 9856 9851 9846 9842 9840 9837 9834 9832 9832 9829 9825 9820 9816 9814 9813 9812 9810 9811 9812 9813 9812 9811 9811 9813 9814 9815 9815 9815 9817 9817 9818 9819 9821 9823 9825 9828 9830 9833 9837 9842 9845 9849 9853 9857
10059 10052 10046 10040 10035 10029 10023 10017 10011 10005 9999 9993 9987 9981 9975 9970 9964 9959 9953 9948 9942 9937 9932 9926 9921 9916 9911 9905 9900 9895 9889 9884 9879 9875 9871 9866 9862 9857 9852 9848 9843 9837 9832 9828 9824 9822 9820 9817 9815 9815 9812 9809 9804 9800 9798 9797 9795 9794 9794 9797 9799 9798 9796 9795 9796 9797 9797 9798 9799 9800 9800 9801 9803 9805 9808 9811 9814 9817 9819 9823 9827 9831 9834 9837 9841
10044 10038 10032 10026 10019 10013 10008 10002 9996 9990 9983 9977 9970 9965 9959 9953 9947 9942 9936 9930 9925 9919 9914 9909 9903 9898 9893 9888 9884 9879 9873 9868 9863 9858 9853 9848 9844 9839 9835 9831 9826 9820 9815 9812 9810 9808 9805 9801 9799 9799 9797 9793 9789 9786 9784 9781 9780 9779 9780 9782 9784 9784 9782 9780 9780 9780 9781 9782 9783 9784 9785 9786 9788 9791 9794 9798 9801 9803 9806 9809 9814 9818 9820 9822 9825
10031 10025 10018 10012 10006 10000 9995 9989 9983 9977 9971 9964 9957 9951 9945 9939 9933 9927 9921 9916 9910 9904 9899 9894 9888 9883 9879 9874 9869 9864 9858 9853 9848 9842 9836 9831 9827 9824 9820 9815 9811 9806 9801 9799 9798 9795 9790 9785 9783 9784 9783 9780 9774 9771 9769 9767 9766 9766 9766 9767 9769 9769 9767 9766 9765 9765 9765 9766 9767 9769 9771 9772 9775 9778 9782 9785 9788 9790 9792 9796 9800 9804 9806 9807 9808
10019 10012 10005 9999 9993 9988 9982 9976 9970 9964 9958 9951 9944 9938 9932 9926 9920 9915 9909 9903 9898 9892 9886 9880 9875 9870 9864 9860 9855 9850 9844 9838 9833 9828 9822 9817 9814 9810 9806 9802 9798 9792 9788 9787 9785 9781 9775 9771 9768 9769 9769 9765 9759 9755 9754 9753 9753 9753 9753 9753 9754 9753 9752 9752 9751 9750 9751 9751 9753 9755 9758 9760 9763 9766 9769 9772 9774 9776 9780 9784 9787 9789 9791 9792 9793
10007 10001 9994 9987 9981 9975 9970 9963 9956 9950 9944 9937 9931 9924 9918 9912 9906 9901 9895 9889 9884 9878 9872 9866 9860 9855 9850 9845 9840 9836 9830 9825 9820 9815 9809 9804 9801 9797 9792 9789 9785 9778 9773 9773 9772 9767 9761 9758 9756 9754 9754 9751 9744 9740 9741 9741 9740 9740 9740 9740 9739 9738 9738 9737 9737 9737 9737 9739 9740 9743 9746 9749 9752 9754 9756 9758 9761 9764 9767 9770 9773 9774 9776 9777 9779
9994 9987 9981 9975 9969 9963 9957 9951 9944 9937 9931 9925 9917 9911 9905 9899 9892 9887 9881 9875 9869 9864 9858 9852 9846 9841 9836 9831 9827 9823 9819 9813 9808 9802 9797 9792 9788 9784 9779 9775 9771 9765 9760 9757 9756 9751 9745 9744 9745 9742 9739 9736 9730 9726 9727 9728 9727 9727 9728 9727 9725 9724 9724 9724 9723 9724 9725 9727 9729 9732 9735 9737 9739 9741 9743 9746 9749 9751 9754 9756 9758 9760 9761 9763 9765
9981 9974 9967 9961 9955 9949 9944 9938 9932 9925 9919 9912 9905 9898 9892 9886 9880 9874 9868 9862 9856 9850 9845 9839 9834 9828 9823 9819 9814 9810 9806 9801 9795 9788 9783 9779 9775 9771 9766 9760 9756 9752 9747 9744 9742 9736 9730 9728 9731 9729 9725 9722 9718 9713 9713 9715 9715 9715 9715 9714 9712 9711 9711 9711 9711 9712 9714 9716 9718 9721 9723 9725 9727 9729 9731 9734 9737 9738 9740 9742 9744 9746 9748 9750 9753
9969 9963 9956 9949 9942 9936 9930 9925 9919 9913 9906 9900 9893 9886 9880 9873 9867 9861 9855 9849 9843 9837 9831 9826 9820 9814 9809 9805 9800 9795 9791 9786 9781 9774 9769 9766 9763 9758 9752 9746 9740 9737 9735 9732 9728 9724 9718 9715 9715 9715 9712 9709 9706 9701 9700 9702 9703 9703 9703 9701 9699 9698 9698 9700 9700 9701 9703 9705 9707 9710 9712 9713 9714 9716 9719 9721 9723 9724 9725 9727 9730 9734 9737 9739 9743
9959 9953 9946 9938 9931 9925 9919 9913 9907 9900 9894 9887 9880 9873 9867 9862 9856 9849 9843 9836 9830 9824 9817 9811 9805 9799 9794 9788 9784 9780 9775 9771 9767 9762 9755 9751 9749 9746 9740 9733 9727 9723 9722 9720 9716 9712 9707 9703 9702 9701 9699 9697 9694 9691 9689 9690 9691 9690 9690 9689 9687 9686 9686 9688 9689 9690 9692 9695 9696 9698 9700 9700 9701 9703 9706 9708 9710 9711 9712 9715 9720 9723 9725 9730 9736
9951 9944 9936 9928 9921 9914 9908 9902 9896 9889 9883 9876 9869 9862 9856 9851 9845 9838 9831 9824 9818 9811 9805 9799 9792 9786 9780 9774 9769 9765 9762 9757 9753 9749 9744 9739 9736 9733 9729 9722 9715 9711 9709 9707 9704 9700 9696 9691 9690 9689 9687 9685 9683 9681 9678 9678 9679 9678 9677 9677 9676 9675 9675 9677 9678 9680 9682 9684 9686 9687 9688 9689 9689 9692 9695 9697 9699 9701 9702 9706 9710 9713 9718 9724 9728
9942 9934 9927 9919 9912 9905 9898 9892 9886 9879 9873 9866 9859 9852 9846 9840 9833 9826 9819 9812 9806 9800 9793 9787 9780 9774 9768 9762 9757 9752 9749 9745 9741 9737 9733 9729 9725 9721 9718 9712 9705 9700 9697 9695 9692 9688 9684 9680 9678 9677 9677 9674 9671 9670 9668 9667 9667 9666 9665 9665 9665 9665 9665 9667 9669 9671 9672 9674 9675 9676 9677 9678 9679 9682 9685 9687 9690 9692 9694 9697 9701 9706 9711 9715 9717
9931 9924 9916 9909 9901 9894 9887 9881 9875 9868 9861 9855 9848 9840 9834 9828 9822 9814 9807 9800 9794 9789 9783 9777 9770 9764 9758 9751 9746 9741 9737 9733 9730 9726 9722 9718 9714 9710 9705 9700 9694 9689 9687 9684 9681 9677 9673 9669 9667 9666 9666 9664 9661 9659 9659 9657 9656 9655 9655 9656 9656 9656 9656 9658 9660 9661 9663 9664 9665 9666 9667 9668 9670 9673 9675 9678 9680 9683 9685 9688 9694 9699 9702 9704 9705
9920 9913 9905 9898 9890 9883 9875 9869 9863 9857 9850 9844 9837 9830 9823 9817 9811 9804 9796 9789 9783 9778 9772 9766 9760 9754 9747 9740 9734 9729 9725 9722 9719 9715 9711 9707 9703 9699 9694 9687 9681 9678 9677 9674 9670 9667 9663 9660 9657 9655 9655 9654 9651 9649 9649 9648 9646 9646 9646 9646 9646 9647 9648 9649 9651 9652 9653 9655 9655 9656 9657 9659 9661 9664 9666 9669 9672 9674 9676 9680 9686 9690 9692 9692 9694
9911 9903 9896 9888 9880 9873 9865 9858 9852 9846 9839 9833 9827 9820 9814 9807 9801 9794 9786 9779 9773 9766 9761 9755 9749 9742 9736 9730 9723 9718 9714 9711 9708 9705 9701 9698 9693 9689 9684 9676 9669 9666 9667 9665 9660 9656 9653 9650 9647 9646 9645 9644 9641 9639 9639 9639 9637 9636 9636 9636 9637 9638 9639 9641 9643 9644 9644 9645 9646 9647 9648 9650 9652 9656 9659 9661 9664 9666 9669 9673 9677 9680 9681 9682 9684
9902 9894 9887 9879 9871 9863 9856 9849 9842 9835 9829 9822 9816 9811 9805 9798 9791 9784 9776 9769 9762 9756 9750 9744 9738 9732 9726 9720 9714 9708 9703 9700 9697 9693 9690 9689 9685 9680 9674 9666 9657 9654 9655 9655 9651 9647 9643 9640 9637 9637 9636 9634 9632 9631 9630 9629 9628 9627 9627 9628 9628 9629 9631 9632 9634 9635 9635 9636 9637 9638 9640 9642 9645 9648 9652 9654 9656 9659 9662 9665 9669 9671 9671 9673 9676
9893 9885 9878 9870 9862 9854 9847 9840 9832 9825 9819 9812 9806 9800 9794 9788 9781 9774 9766 9759 9752 9746 9741 9735 9729 9723 9716 9710 9704 9699 9693 9689 9685 9681 9678 9676 9675 9671 9666 9658 9648 9643 9644 9646 9642 9638 9635 9631 9627 9627 9627 9625 9623 9622 9621 9620 9619 9619 9619 9619 9620 9621 9623 9624 9625 9626 9627 9628 9629 9631 9632 9635 9638 9641 9644 9647 9650 9652 9655 9658 9661 9662 9663 9666 9670
9883 9877 9869 9862 9854 9846 9838 9831 9824 9817 9810 9803 9796 9789 9783 9778 9771 9764 9757 9750 9742 9736 9731 9725 9720 9714 9707 9700 9694 9690 9685 9679 9674 9670 9667 9665 9663 9660 9655 9649 9641 9634 9634 9635 9633 9629 9627 9625 9620 9617 9618 9617 9615 9613 9613 9612 9611 9611 9611 9611 9612 9614 9615 9616 9617 9617 9618 9620 9621 9623 9626 9629 9632 9635 9637 9640 9643 9645 9647 9650 9652 9653 9656 9660 9664
9875 9868 9861 9854 9846 9838 9830 9823 9816 9809 9801 9794 9786 9780 9774 9768 9762 9755 9748 9741 9733 9726 9720 9715 9710 9704 9698 9691 9685 9680 9676 9671 9665 9660 9656 9655 9655 9652 9645 9637 9630 9625 9624 9626 9624 9618 9616 9617 9614 9610 9609 9609 9607 9605 9605 9604 9603 9603 9603 9604 9605 9606 9607 9608 9609 9610 9611 9613 9615 9617 9620 9622 9625 9627 9630 9633 9635 9637 9639 9642 9643 9645 9649 9653 9657
9867 9860 9852 9845 9837 9830 9822 9815 9808 9801 9793 9786 9778 9771 9764 9759 9753 9746 9739 9732 9725 9717 9711 9705 9700 9695 9689 9682 9676 9670 9666 9661 9657 9651 9645 9642 9643 9645 9641 9631 9620 9613 9613 9616 9617 9611 9605 9606 9606 9603 9600 9601 9600 9598 9597 9596 9595 9596 9597 9597 9598 9599 9600 9601 9602 9603 9604 9606 9608 9611 9613 9615 9618 9620 9623 9626 9628 9630 9632 9634 9636 9638 9642 9646 9650
9859 9852 9845 9836 9829 9821 9813 9807 9800 9792 9785 9777 9770 9762 9755 9749 9743 9737 9730 9723 9717 9710 9703 9697 9691 9685 9679 9673 9667 9661 9656 9652 9647 9643 9637 9631 9629 9632 9634 9629 9618 9606 9601 9603 9608 9607 9599 9596 9597 9596 9593 9592 9593 9592 9590 9589 9589 9589 9590 9590 9591 9592 9593 9594 9595 9596 9598 9600 9602 9604 9606 9608 9611 9614 9617 9620 9622 9623 9626 9627 9629 9632 9636 9640 9643